Year,Month,Day,Hour,Minute,Value (Times are PST for temperature in C)
2012,10,17,00,02,9.60
2012,10,17,00,03,9.60
2012,10,17,00,04,9.60
2012,10,17,00,05,9.60
2012,10,17,00,06,9.60
2012,10,17,00,07,9.50
2012,10,17,00,08,9.60
2012,10,17,00,09,9.50
2012,10,17,00,10,9.50
2012,10,17,00,11,9.50
2012,10,17,00,12,9.50
2012,10,17,00,13,9.50
2012,10,17,00,14,9.50
2012,10,17,00,15,9.50
2012,10,17,00,16,9.50
2012,10,17,00,17,9.40
2012,10,17,00,19,9.40
2012,10,17,00,20,9.40
2012,10,17,00,21,9.40
2012,10,17,00,22,9.40
2012,10,17,00,23,9.40
2012,10,17,00,24,9.40
2012,10,17,00,25,9.40
2012,10,17,00,26,9.40
2012,10,17,00,27,9.40
2012,10,17,00,28,9.40
2012,10,17,00,29,9.40
2012,10,17,00,30,9.40
2012,10,17,00,32,9.40
2012,10,17,00,33,9.40
2012,10,17,00,34,9.40
2012,10,17,00,35,9.40
2012,10,17,00,37,9.40
2012,10,17,00,38,9.40
2012,10,17,00,39,9.40
2012,10,17,00,40,9.40
2012,10,17,00,42,9.40
2012,10,17,00,43,9.30
2012,10,17,00,44,9.30
2012,10,17,00,45,9.30
2012,10,17,00,47,9.30
2012,10,17,00,48,9.30
2012,10,17,00,49,9.40
2012,10,17,00,50,9.40
2012,10,17,00,51,9.40
2012,10,17,00,52,9.40
2012,10,17,00,53,9.40
2012,10,17,00,54,9.40
2012,10,17,00,55,9.40
2012,10,17,00,57,9.50
2012,10,17,00,58,9.50
2012,10,17,00,59,9.50
2012,10,17,01,00,9.50
2012,10,17,01,01,9.40
2012,10,17,01,02,9.40
2012,10,17,01,03,9.40
2012,10,17,01,05,9.40
2012,10,17,01,06,9.30
2012,10,17,01,07,9.30
2012,10,17,01,08,9.30
2012,10,17,01,10,9.30
2012,10,17,01,11,9.30
2012,10,17,01,12,9.30
2012,10,17,01,13,9.30
2012,10,17,01,14,9.30
2012,10,17,01,15,9.30
2012,10,17,01,16,9.30
2012,10,17,01,17,9.30
2012,10,17,01,18,9.30
2012,10,17,01,19,9.30
2012,10,17,01,20,9.30
2012,10,17,01,21,9.30
2012,10,17,01,22,9.30
2012,10,17,01,23,9.30
2012,10,17,01,24,9.30
2012,10,17,01,25,9.30
2012,10,17,01,26,9.30
2012,10,17,01,27,9.30
2012,10,17,01,28,9.30
2012,10,17,01,30,9.30
2012,10,17,01,31,9.30
2012,10,17,01,32,9.30
2012,10,17,01,33,9.30
2012,10,17,01,34,9.20
2012,10,17,01,35,9.20
2012,10,17,01,37,9.20
2012,10,17,01,38,9.20
2012,10,17,01,39,9.20
2012,10,17,01,40,9.20
2012,10,17,01,41,9.20
2012,10,17,01,42,9.20
2012,10,17,01,43,9.20
2012,10,17,01,44,9.20
2012,10,17,01,46,9.20
2012,10,17,01,47,9.20
2012,10,17,01,48,9.10
2012,10,17,01,49,9.10
2012,10,17,01,51,9.10
2012,10,17,01,52,9.10
2012,10,17,01,53,9.10
2012,10,17,01,54,9.10
2012,10,17,01,56,9.10
2012,10,17,01,57,9.10
2012,10,17,01,58,9.10
2012,10,17,01,59,9.10
2012,10,17,02,00,9.10
2012,10,17,02,01,9.10
2012,10,17,02,02,9.10
2012,10,17,02,03,9.10
2012,10,17,02,04,9.10
2012,10,17,02,06,9.10
2012,10,17,02,07,9.10
2012,10,17,02,08,9.10
2012,10,17,02,09,9.10
2012,10,17,02,10,9.10
2012,10,17,02,11,9.10
2012,10,17,02,12,9.10
2012,10,17,02,13,9.10
2012,10,17,02,14,9.10
2012,10,17,02,15,9.10
2012,10,17,02,16,9.10
2012,10,17,02,17,9.10
2012,10,17,02,19,9.10
2012,10,17,02,20,9.10
2012,10,17,02,21,9.00
2012,10,17,02,22,9.00
2012,10,17,02,23,9.00
2012,10,17,02,25,9.00
2012,10,17,02,26,9.00
2012,10,17,02,27,9.00
2012,10,17,02,28,9.00
2012,10,17,02,29,9.00
2012,10,17,02,31,9.00
2012,10,17,02,32,8.90
2012,10,17,02,33,9.00
2012,10,17,02,35,9.00
2012,10,17,02,36,9.00
2012,10,17,02,37,9.00
2012,10,17,02,38,9.00
2012,10,17,02,40,8.90
2012,10,17,02,41,8.90
2012,10,17,02,42,8.90
2012,10,17,02,43,8.90
2012,10,17,02,45,8.90
2012,10,17,02,46,8.90
2012,10,17,02,47,8.90
2012,10,17,02,48,8.90
2012,10,17,02,50,8.80
2012,10,17,02,51,8.90
2012,10,17,02,52,8.90
2012,10,17,02,53,8.90
2012,10,17,02,54,8.90
2012,10,17,02,56,8.90
2012,10,17,02,57,8.90
2012,10,17,02,58,8.90
2012,10,17,02,59,8.90
2012,10,17,03,00,8.90
2012,10,17,03,01,8.90
2012,10,17,03,02,8.90
2012,10,17,03,03,8.80
2012,10,17,03,05,8.90
2012,10,17,03,06,8.90
2012,10,17,03,07,8.90
2012,10,17,03,09,8.90
2012,10,17,03,10,8.90
2012,10,17,03,11,9.00
2012,10,17,03,12,9.00
2012,10,17,03,14,9.00
2012,10,17,03,15,9.00
2012,10,17,03,16,9.00
2012,10,17,03,18,9.00
2012,10,17,03,19,8.90
2012,10,17,03,20,9.00
2012,10,17,03,21,8.90
2012,10,17,03,23,8.90
2012,10,17,03,24,8.90
2012,10,17,03,25,8.90
2012,10,17,03,26,8.90
2012,10,17,03,28,8.90
2012,10,17,03,29,8.90
2012,10,17,03,30,9.00
2012,10,17,03,31,9.00
2012,10,17,03,33,9.00
2012,10,17,03,34,9.00
2012,10,17,03,35,9.10
2012,10,17,03,36,9.00
2012,10,17,03,37,9.00
2012,10,17,03,38,9.00
2012,10,17,03,39,9.00
2012,10,17,03,40,9.00
2012,10,17,03,41,9.00
2012,10,17,03,42,9.00
2012,10,17,03,43,9.00
2012,10,17,03,44,9.00
2012,10,17,03,45,9.00
2012,10,17,03,47,9.00
2012,10,17,03,48,9.00
2012,10,17,03,49,9.00
2012,10,17,03,50,9.00
2012,10,17,03,51,9.00
2012,10,17,03,52,8.90
2012,10,17,03,53,8.90
2012,10,17,03,54,8.90
2012,10,17,03,55,8.90
2012,10,17,03,56,8.90
2012,10,17,03,57,8.90
2012,10,17,03,58,8.90
2012,10,17,03,59,8.90
2012,10,17,04,00,8.90
2012,10,17,04,01,8.80
2012,10,17,04,02,8.80
2012,10,17,04,03,8.80
2012,10,17,04,05,8.80
2012,10,17,04,06,8.80
2012,10,17,04,07,8.80
2012,10,17,04,08,8.80
2012,10,17,04,09,8.80
2012,10,17,04,10,8.80
2012,10,17,04,11,8.80
2012,10,17,04,12,8.80
2012,10,17,04,13,8.80
2012,10,17,04,14,8.90
2012,10,17,04,15,8.90
2012,10,17,04,16,8.90
2012,10,17,04,17,8.90
2012,10,17,04,19,8.90
2012,10,17,04,20,8.90
2012,10,17,04,21,8.90
2012,10,17,04,22,8.90
2012,10,17,04,23,8.90
2012,10,17,04,25,8.90
2012,10,17,04,26,9.00
2012,10,17,04,27,9.00
2012,10,17,04,28,9.00
2012,10,17,04,29,9.00
2012,10,17,04,30,9.00
2012,10,17,04,31,9.00
2012,10,17,04,32,9.00
2012,10,17,04,34,9.10
2012,10,17,04,35,9.00
2012,10,17,04,36,9.10
2012,10,17,04,37,9.00
2012,10,17,04,38,9.10
2012,10,17,04,40,9.00
2012,10,17,04,41,9.00
2012,10,17,04,42,9.00
2012,10,17,04,43,9.10
2012,10,17,04,44,9.10
2012,10,17,04,45,9.10
2012,10,17,04,46,9.10
2012,10,17,04,47,9.10
2012,10,17,04,49,9.10
2012,10,17,04,50,9.10
2012,10,17,04,51,9.10
2012,10,17,04,52,9.10
2012,10,17,04,54,9.10
2012,10,17,04,55,9.10
2012,10,17,04,56,9.10
2012,10,17,04,57,9.10
2012,10,17,04,59,9.00
2012,10,17,05,00,9.00
2012,10,17,05,01,9.00
2012,10,17,05,02,9.00
2012,10,17,05,04,9.10
2012,10,17,05,05,9.10
2012,10,17,05,06,9.10
2012,10,17,05,07,9.10
2012,10,17,05,09,9.10
2012,10,17,05,10,9.10
2012,10,17,05,11,9.10
2012,10,17,05,13,9.10
2012,10,17,05,14,9.10
2012,10,17,05,15,9.10
2012,10,17,05,16,9.10
2012,10,17,05,17,9.10
2012,10,17,05,19,9.10
2012,10,17,05,20,9.10
2012,10,17,05,21,9.10
2012,10,17,05,22,9.10
2012,10,17,05,23,9.10
2012,10,17,05,25,9.00
2012,10,17,05,26,9.00
2012,10,17,05,27,9.00
2012,10,17,05,28,9.00
2012,10,17,05,29,9.00
2012,10,17,05,30,9.00
2012,10,17,05,31,8.90
2012,10,17,05,32,9.00
2012,10,17,05,33,8.90
2012,10,17,05,34,8.90
2012,10,17,05,36,8.90
2012,10,17,05,37,9.00
2012,10,17,05,38,9.00
2012,10,17,05,40,9.10
2012,10,17,05,41,9.10
2012,10,17,05,42,9.10
2012,10,17,05,43,9.10
2012,10,17,05,44,9.10
2012,10,17,05,45,9.10
2012,10,17,05,46,9.10
2012,10,17,05,47,9.10
2012,10,17,05,48,9.10
2012,10,17,05,50,9.10
2012,10,17,05,51,9.10
2012,10,17,05,52,9.10
2012,10,17,05,53,9.10
2012,10,17,05,54,9.10
2012,10,17,05,56,9.10
2012,10,17,05,57,9.10
2012,10,17,05,58,9.10
2012,10,17,05,59,9.10
2012,10,17,06,01,9.10
2012,10,17,06,02,9.10
2012,10,17,06,03,9.10
2012,10,17,06,04,9.10
2012,10,17,06,05,9.10
2012,10,17,06,07,9.10
2012,10,17,06,08,9.10
2012,10,17,06,09,9.10
2012,10,17,06,10,9.10
2012,10,17,06,12,9.10
2012,10,17,06,13,9.10
2012,10,17,06,14,9.10
2012,10,17,06,15,9.10
2012,10,17,06,16,9.10
2012,10,17,06,17,9.10
2012,10,17,06,18,9.10
2012,10,17,06,19,9.00
2012,10,17,06,20,9.00
2012,10,17,06,21,8.90
2012,10,17,06,22,8.90
2012,10,17,06,23,8.90
2012,10,17,06,24,8.90
2012,10,17,06,25,8.90
2012,10,17,06,26,8.90
2012,10,17,06,27,8.80
2012,10,17,06,28,8.80
2012,10,17,06,29,8.80
2012,10,17,06,30,8.80
2012,10,17,06,32,8.70
2012,10,17,06,33,8.70
2012,10,17,06,34,8.70
2012,10,17,06,35,8.70
2012,10,17,06,37,8.70
2012,10,17,06,38,8.70
2012,10,17,06,39,8.60
2012,10,17,06,40,8.60
2012,10,17,06,42,8.60
2012,10,17,06,43,8.60
2012,10,17,06,44,8.60
2012,10,17,06,45,8.60
2012,10,17,06,47,8.60
2012,10,17,06,48,8.50
2012,10,17,06,49,8.50
2012,10,17,06,50,8.40
2012,10,17,06,52,8.40
2012,10,17,06,53,8.40
2012,10,17,06,54,8.40
2012,10,17,06,55,8.40
2012,10,17,06,57,8.40
2012,10,17,06,58,8.40
2012,10,17,06,59,8.40
2012,10,17,07,00,8.40
2012,10,17,07,02,8.40
2012,10,17,07,03,8.40
2012,10,17,07,04,8.40
2012,10,17,07,05,8.30
2012,10,17,07,06,8.30
2012,10,17,07,07,8.30
2012,10,17,07,08,8.30
2012,10,17,07,09,8.30
2012,10,17,07,10,8.20
2012,10,17,07,11,8.20
2012,10,17,07,12,8.20
2012,10,17,07,13,8.20
2012,10,17,07,14,8.10
2012,10,17,07,16,8.10
2012,10,17,07,17,8.10
2012,10,17,07,18,8.00
2012,10,17,07,19,7.90
2012,10,17,07,20,7.90
2012,10,17,07,21,7.90
2012,10,17,07,22,7.90
2012,10,17,07,23,7.90
2012,10,17,07,24,7.80
2012,10,17,07,25,7.90
2012,10,17,07,26,7.80
2012,10,17,07,27,7.90
2012,10,17,07,28,7.90
2012,10,17,07,29,7.90
2012,10,17,07,30,7.90
2012,10,17,07,31,7.90
2012,10,17,07,32,8.00
2012,10,17,07,33,8.00
2012,10,17,07,35,8.00
2012,10,17,07,36,8.10
2012,10,17,07,37,8.10
2012,10,17,07,38,8.20
2012,10,17,07,40,8.20
2012,10,17,07,41,8.20
2012,10,17,07,42,8.20
2012,10,17,07,43,8.20
2012,10,17,07,45,8.20
2012,10,17,07,46,8.20
2012,10,17,07,47,8.20
2012,10,17,07,48,8.20
2012,10,17,07,50,8.20
2012,10,17,07,51,8.20
2012,10,17,07,52,8.20
2012,10,17,07,53,8.20
2012,10,17,07,54,8.20
2012,10,17,07,55,8.20
2012,10,17,07,56,8.30
2012,10,17,07,57,8.30
2012,10,17,07,58,8.30
2012,10,17,07,59,8.30
2012,10,17,08,00,8.30
2012,10,17,08,01,8.30
2012,10,17,08,02,8.30
2012,10,17,08,03,8.30
2012,10,17,08,05,8.30
2012,10,17,08,06,8.20
2012,10,17,08,07,8.20
2012,10,17,08,08,8.20
2012,10,17,08,09,8.20
2012,10,17,08,11,8.20
2012,10,17,08,12,8.20
2012,10,17,08,13,8.10
2012,10,17,08,14,8.10
2012,10,17,08,16,8.10
2012,10,17,08,17,8.10
2012,10,17,08,18,8.10
2012,10,17,08,20,8.10
2012,10,17,08,21,8.00
2012,10,17,08,22,8.00
2012,10,17,08,23,8.00
2012,10,17,08,25,8.00
2012,10,17,08,26,8.10
2012,10,17,08,27,8.10
2012,10,17,08,28,8.10
2012,10,17,08,29,8.20
2012,10,17,08,31,8.20
2012,10,17,08,32,8.20
2012,10,17,08,33,8.20
2012,10,17,08,35,8.20
2012,10,17,08,36,8.20
2012,10,17,08,37,8.30
2012,10,17,08,38,8.30
2012,10,17,08,39,8.30
2012,10,17,08,41,8.30
2012,10,17,08,42,8.30
2012,10,17,08,43,8.30
2012,10,17,08,44,8.40
2012,10,17,08,45,8.40
2012,10,17,08,46,8.40
2012,10,17,08,47,8.40
2012,10,17,08,48,8.40
2012,10,17,08,49,8.40
2012,10,17,08,50,8.40
2012,10,17,08,51,8.40
2012,10,17,08,52,8.40
2012,10,17,08,53,8.40
2012,10,17,08,54,8.40
2012,10,17,08,55,8.40
2012,10,17,08,56,8.40
2012,10,17,08,58,8.40
2012,10,17,08,59,8.40
2012,10,17,09,00,8.40
2012,10,17,09,01,8.40
2012,10,17,09,02,8.40
2012,10,17,09,04,8.40
2012,10,17,09,05,8.50
2012,10,17,09,06,8.60
2012,10,17,09,07,8.60
2012,10,17,09,09,8.60
2012,10,17,09,10,8.60
2012,10,17,09,11,8.60
2012,10,17,09,12,8.70
2012,10,17,09,13,8.70
2012,10,17,09,14,8.70
2012,10,17,09,15,8.70
2012,10,17,09,16,8.70
2012,10,17,09,17,8.70
2012,10,17,09,19,8.70
2012,10,17,09,20,8.80
2012,10,17,09,21,8.80
2012,10,17,09,23,8.80
2012,10,17,09,24,8.80
2012,10,17,09,25,8.80
2012,10,17,09,26,8.80
2012,10,17,09,27,8.80
2012,10,17,09,28,8.80
2012,10,17,09,29,8.80
2012,10,17,09,30,8.90
2012,10,17,09,32,8.90
2012,10,17,09,33,8.90
2012,10,17,09,34,8.90
2012,10,17,09,35,8.90
2012,10,17,09,36,8.90
2012,10,17,09,38,8.90
2012,10,17,09,39,8.90
2012,10,17,09,40,8.90
2012,10,17,09,41,8.90
2012,10,17,09,42,8.90
2012,10,17,09,43,8.90
2012,10,17,09,44,8.90
2012,10,17,09,45,8.90
2012,10,17,09,46,8.90
2012,10,17,09,47,8.90
2012,10,17,09,48,8.90
2012,10,17,09,50,8.90
2012,10,17,09,51,8.90
2012,10,17,09,52,8.90
2012,10,17,09,53,8.90
2012,10,17,09,54,8.90
2012,10,17,09,55,8.90
2012,10,17,09,56,8.90
2012,10,17,09,57,9.00
2012,10,17,09,58,8.90
2012,10,17,10,00,9.00
2012,10,17,10,01,9.00
2012,10,17,10,02,9.00
2012,10,17,10,03,9.10
2012,10,17,10,05,9.10
2012,10,17,10,06,9.10
2012,10,17,10,07,9.10
2012,10,17,10,08,9.20
2012,10,17,10,10,9.20
2012,10,17,10,11,9.20
2012,10,17,10,12,9.30
2012,10,17,10,13,9.30
2012,10,17,10,14,9.30
2012,10,17,10,15,9.30
2012,10,17,10,16,9.40
2012,10,17,10,17,9.40
2012,10,17,10,18,9.40
2012,10,17,10,19,9.40
2012,10,17,10,20,9.40
2012,10,17,10,21,9.50
2012,10,17,10,22,9.50
2012,10,17,10,23,9.50
2012,10,17,10,24,9.50
2012,10,17,10,25,9.60
2012,10,17,10,26,9.60
2012,10,17,10,27,9.60
2012,10,17,10,28,9.70
2012,10,17,10,30,9.70
2012,10,17,10,31,9.70
2012,10,17,10,32,9.80
2012,10,17,10,33,9.80
2012,10,17,10,34,9.80
2012,10,17,10,35,9.80
2012,10,17,10,36,9.80
2012,10,17,10,37,9.90
2012,10,17,10,38,9.90
2012,10,17,10,39,9.90
2012,10,17,10,40,10.00
2012,10,17,10,41,10.10
2012,10,17,10,42,10.10
2012,10,17,10,43,10.10
2012,10,17,10,44,10.10
2012,10,17,10,45,10.10
2012,10,17,10,46,10.20
2012,10,17,10,47,10.20
2012,10,17,10,49,10.20
2012,10,17,10,50,10.30
2012,10,17,10,51,10.30
2012,10,17,10,52,10.30
2012,10,17,10,53,10.30
2012,10,17,10,54,10.30
2012,10,17,10,55,10.40
2012,10,17,10,56,10.40
2012,10,17,10,57,10.50
2012,10,17,10,59,10.50
2012,10,17,11,00,10.50
2012,10,17,11,01,10.60
2012,10,17,11,02,10.60
2012,10,17,11,03,10.60
2012,10,17,11,04,10.60
2012,10,17,11,05,10.60
2012,10,17,11,06,10.70
2012,10,17,11,07,10.70
2012,10,17,11,08,10.70
2012,10,17,11,10,10.70
2012,10,17,11,11,10.70
2012,10,17,11,12,10.80
2012,10,17,11,13,10.80
2012,10,17,11,14,10.80
2012,10,17,11,15,10.80
2012,10,17,11,16,10.80
2012,10,17,11,18,10.80
2012,10,17,11,19,10.90
2012,10,17,11,20,10.90
2012,10,17,11,21,10.90
2012,10,17,11,22,10.80
2012,10,17,11,23,10.80
2012,10,17,11,24,10.80
2012,10,17,11,25,10.80
2012,10,17,11,27,10.80
2012,10,17,11,28,10.80
2012,10,17,11,29,10.80
2012,10,17,11,30,10.90
2012,10,17,11,31,10.90
2012,10,17,11,33,10.90
2012,10,17,11,34,10.90
2012,10,17,11,35,10.90
2012,10,17,11,36,10.80
2012,10,17,11,37,10.80
2012,10,17,11,38,10.80
2012,10,17,11,39,10.80
2012,10,17,11,40,10.80
2012,10,17,11,41,10.80
2012,10,17,11,42,10.80
2012,10,17,11,43,10.80
2012,10,17,11,44,10.90
2012,10,17,11,45,10.90
2012,10,17,11,46,10.90
2012,10,17,11,47,10.90
2012,10,17,11,48,10.80
2012,10,17,11,49,10.90
2012,10,17,11,50,10.90
2012,10,17,11,51,10.90
2012,10,17,11,52,10.90
2012,10,17,11,53,10.90
2012,10,17,11,55,10.90
2012,10,17,11,56,11.00
2012,10,17,11,57,11.00
2012,10,17,11,59,11.10
2012,10,17,12,00,11.00
2012,10,17,12,01,11.10
2012,10,17,12,02,11.10
2012,10,17,12,03,11.10
2012,10,17,12,05,11.10
2012,10,17,12,06,11.10
2012,10,17,12,07,11.10
2012,10,17,12,08,11.20
2012,10,17,12,09,11.20
2012,10,17,12,10,11.20
2012,10,17,12,11,11.20
2012,10,17,12,12,11.30
2012,10,17,12,13,11.30
2012,10,17,12,14,11.30
2012,10,17,12,15,11.30
2012,10,17,12,16,11.30
2012,10,17,12,17,11.30
2012,10,17,12,18,11.30
2012,10,17,12,20,11.30
2012,10,17,12,21,11.20
2012,10,17,12,22,11.20
2012,10,17,12,23,11.30
2012,10,17,12,24,11.30
2012,10,17,12,25,11.30
2012,10,17,12,26,11.30
2012,10,17,12,27,11.30
2012,10,17,12,28,11.30
2012,10,17,12,30,11.30
2012,10,17,12,31,11.30
2012,10,17,12,32,11.30
2012,10,17,12,33,11.30
2012,10,17,12,35,11.30
2012,10,17,12,36,11.30
2012,10,17,12,37,11.30
2012,10,17,12,38,11.30
2012,10,17,12,39,11.40
2012,10,17,12,40,11.40
2012,10,17,12,41,11.40
2012,10,17,12,42,11.40
2012,10,17,12,44,11.40
2012,10,17,12,45,11.30
2012,10,17,12,46,11.30
2012,10,17,12,47,11.30
2012,10,17,12,49,11.30
2012,10,17,12,50,11.30
2012,10,17,12,51,11.30
2012,10,17,12,53,11.30
2012,10,17,12,54,11.30
2012,10,17,12,55,11.30
2012,10,17,12,57,11.30
2012,10,17,12,58,11.20
2012,10,17,12,59,11.20
2012,10,17,13,00,11.20
2012,10,17,13,02,11.20
2012,10,17,13,03,11.30
2012,10,17,13,04,11.30
2012,10,17,13,06,11.40
2012,10,17,13,07,11.40
2012,10,17,13,08,11.40
2012,10,17,13,09,11.40
2012,10,17,13,11,11.40
2012,10,17,13,12,11.30
2012,10,17,13,13,11.30
2012,10,17,13,14,11.30
2012,10,17,13,15,11.30
2012,10,17,13,16,11.20
2012,10,17,13,17,11.10
2012,10,17,13,18,11.10
2012,10,17,13,19,11.10
2012,10,17,13,21,11.10
2012,10,17,13,22,11.10
2012,10,17,13,23,11.20
2012,10,17,13,24,11.20
2012,10,17,13,25,11.30
2012,10,17,13,26,11.30
2012,10,17,13,27,11.30
2012,10,17,13,28,11.40
2012,10,17,13,29,11.40
2012,10,17,13,30,11.40
2012,10,17,13,31,11.40
2012,10,17,13,32,11.50
2012,10,17,13,33,11.60
2012,10,17,13,34,11.70
2012,10,17,13,36,11.70
2012,10,17,13,37,11.80
2012,10,17,13,38,11.80
2012,10,17,13,40,11.70
2012,10,17,13,41,11.70
2012,10,17,13,42,11.70
2012,10,17,13,43,11.80
2012,10,17,13,45,11.80
2012,10,17,13,46,11.90
2012,10,17,13,47,12.00
2012,10,17,13,49,12.10
2012,10,17,13,50,12.20
2012,10,17,13,51,12.20
2012,10,17,13,52,12.20
2012,10,17,13,54,12.20
2012,10,17,13,55,12.20
2012,10,17,13,56,12.20
2012,10,17,13,57,12.20
2012,10,17,13,59,12.10
2012,10,17,14,00,12.10
2012,10,17,14,01,12.10
2012,10,17,14,02,12.10
2012,10,17,14,04,12.10
2012,10,17,14,05,12.10
2012,10,17,14,06,12.10
2012,10,17,14,07,12.10
2012,10,17,14,09,12.10
2012,10,17,14,10,12.10
2012,10,17,14,11,12.00
2012,10,17,14,12,11.90
2012,10,17,14,13,11.90
2012,10,17,14,14,11.90
2012,10,17,14,15,11.90
2012,10,17,14,16,12.00
2012,10,17,14,17,12.10
2012,10,17,14,19,12.10
2012,10,17,14,20,12.10
2012,10,17,14,21,12.10
2012,10,17,14,22,12.10
2012,10,17,14,24,12.00
2012,10,17,14,25,11.90
2012,10,17,14,26,11.90
2012,10,17,14,28,11.90
2012,10,17,14,29,11.90
2012,10,17,14,30,11.90
2012,10,17,14,31,11.90
2012,10,17,14,33,11.90
2012,10,17,14,34,11.90
2012,10,17,14,35,11.90
2012,10,17,14,36,11.90
2012,10,17,14,38,11.90
2012,10,17,14,39,11.90
2012,10,17,14,40,11.90
2012,10,17,14,42,11.80
2012,10,17,14,43,11.80
2012,10,17,14,44,11.80
2012,10,17,14,46,11.80
2012,10,17,14,47,11.70
2012,10,17,14,48,11.70
2012,10,17,14,49,11.70
2012,10,17,14,51,11.70
2012,10,17,14,52,11.70
2012,10,17,14,53,11.70
2012,10,17,14,54,11.70
2012,10,17,14,56,11.70
2012,10,17,14,57,11.60
2012,10,17,14,58,11.60
2012,10,17,14,59,11.60
2012,10,17,15,01,11.60
2012,10,17,15,02,11.50
2012,10,17,15,03,11.50
2012,10,17,15,04,11.50
2012,10,17,15,06,11.50
2012,10,17,15,07,11.60
2012,10,17,15,08,11.60
2012,10,17,15,09,11.60
2012,10,17,15,11,11.60
2012,10,17,15,12,11.60
2012,10,17,15,13,11.60
2012,10,17,15,14,11.50
2012,10,17,15,15,11.50
2012,10,17,15,16,11.50
2012,10,17,15,17,11.40
2012,10,17,15,18,11.40
2012,10,17,15,20,11.40
2012,10,17,15,21,11.40
2012,10,17,15,22,11.50
2012,10,17,15,23,11.50
2012,10,17,15,25,11.50
2012,10,17,15,26,11.50
2012,10,17,15,27,11.40
2012,10,17,15,28,11.40
2012,10,17,15,30,11.40
2012,10,17,15,31,11.30
2012,10,17,15,32,11.30
2012,10,17,15,33,11.30
2012,10,17,15,35,11.30
2012,10,17,15,36,11.20
2012,10,17,15,37,11.20
2012,10,17,15,38,11.10
2012,10,17,15,40,11.10
2012,10,17,15,41,11.10
2012,10,17,15,42,11.10
2012,10,17,15,43,11.10
2012,10,17,15,45,11.10
2012,10,17,15,46,11.00
2012,10,17,15,47,11.10
2012,10,17,15,48,11.10
2012,10,17,15,50,11.10
2012,10,17,15,51,11.10
2012,10,17,15,52,11.20
2012,10,17,15,53,11.20
2012,10,17,15,55,11.20
2012,10,17,15,56,11.20
2012,10,17,15,57,11.20
2012,10,17,15,58,11.20
2012,10,17,16,00,11.20
2012,10,17,16,01,11.20
2012,10,17,16,02,11.20
2012,10,17,16,03,11.20
2012,10,17,16,05,11.20
2012,10,17,16,06,11.20
2012,10,17,16,07,11.20
2012,10,17,16,08,11.20
2012,10,17,16,09,11.30
2012,10,17,16,10,11.30
2012,10,17,16,11,11.30
2012,10,17,16,12,11.30
2012,10,17,16,13,11.30
2012,10,17,16,15,11.30
2012,10,17,16,16,11.20
2012,10,17,16,17,11.30
2012,10,17,16,18,11.30
2012,10,17,16,20,11.30
2012,10,17,16,21,11.30
2012,10,17,16,22,11.30
2012,10,17,16,23,11.30
2012,10,17,16,24,11.40
2012,10,17,16,25,11.40
2012,10,17,16,26,11.40
2012,10,17,16,27,11.40
2012,10,17,16,28,11.40
2012,10,17,16,30,11.40
2012,10,17,16,31,11.40
2012,10,17,16,32,11.30
2012,10,17,16,34,11.30
2012,10,17,16,35,11.30
2012,10,17,16,36,11.30
2012,10,17,16,38,11.20
2012,10,17,16,39,11.20
2012,10,17,16,40,11.20
2012,10,17,16,42,11.20
2012,10,17,16,43,11.20
2012,10,17,16,44,11.20
2012,10,17,16,45,11.30
2012,10,17,16,47,11.30
2012,10,17,16,48,11.30
2012,10,17,16,49,11.30
2012,10,17,16,50,11.30
2012,10,17,16,52,11.30
2012,10,17,16,53,11.30
2012,10,17,16,54,11.30
2012,10,17,16,55,11.30
2012,10,17,16,57,11.30
2012,10,17,16,58,11.30
2012,10,17,16,59,11.30
2012,10,17,17,00,11.30
2012,10,17,17,01,11.30
2012,10,17,17,03,11.30
2012,10,17,17,04,11.30
2012,10,17,17,05,11.30
2012,10,17,17,06,11.30
2012,10,17,17,07,11.30
2012,10,17,17,09,11.30
2012,10,17,17,10,11.30
2012,10,17,17,11,11.30
2012,10,17,17,12,11.20
2012,10,17,17,14,11.20
2012,10,17,17,15,11.20
2012,10,17,17,16,11.20
2012,10,17,17,17,11.20
2012,10,17,17,19,11.20
2012,10,17,17,20,11.10
2012,10,17,17,21,11.10
2012,10,17,17,22,11.10
2012,10,17,17,24,11.10
2012,10,17,17,25,11.10
2012,10,17,17,26,11.10
2012,10,17,17,27,11.10
2012,10,17,17,29,11.00
2012,10,17,17,30,11.00
2012,10,17,17,31,11.00
2012,10,17,17,32,11.00
2012,10,17,17,33,11.00
2012,10,17,17,34,11.00
2012,10,17,17,35,11.00
2012,10,17,17,36,11.00
2012,10,17,17,37,11.00
2012,10,17,17,38,10.90
2012,10,17,17,39,11.00
2012,10,17,17,40,10.90
2012,10,17,17,41,10.90
2012,10,17,17,42,10.90
2012,10,17,17,43,10.90
2012,10,17,17,44,10.90
2012,10,17,17,45,10.90
2012,10,17,17,46,10.90
2012,10,17,17,47,10.90
2012,10,17,17,48,10.90
2012,10,17,17,50,10.90
2012,10,17,17,51,10.90
2012,10,17,17,52,10.90
2012,10,17,17,53,10.90
2012,10,17,17,54,10.90
2012,10,17,17,55,10.90
2012,10,17,17,56,10.90
2012,10,17,17,57,10.90
2012,10,17,17,58,10.90
2012,10,17,17,59,10.90
2012,10,17,18,00,10.90
2012,10,17,18,01,10.90
2012,10,17,18,02,10.90
2012,10,17,18,03,10.80
2012,10,17,18,04,10.90
2012,10,17,18,06,10.90
2012,10,17,18,07,10.80
2012,10,17,18,08,10.80
2012,10,17,18,09,10.80
2012,10,17,18,10,10.80
2012,10,17,18,11,10.80
2012,10,17,18,12,10.80
2012,10,17,18,13,10.80
2012,10,17,18,14,10.80
2012,10,17,18,15,10.80
2012,10,17,18,16,10.80
2012,10,17,18,17,10.80
2012,10,17,18,18,10.80
2012,10,17,18,20,10.80
2012,10,17,18,21,10.80
2012,10,17,18,22,10.80
2012,10,17,18,23,10.80
2012,10,17,18,24,10.80
2012,10,17,18,25,10.80
2012,10,17,18,26,10.80
2012,10,17,18,27,10.80
2012,10,17,18,28,10.80
2012,10,17,18,29,10.80
2012,10,17,18,30,10.80
2012,10,17,18,31,10.80
2012,10,17,18,32,10.80
2012,10,17,18,34,10.80
2012,10,17,18,35,10.80
2012,10,17,18,36,10.80
2012,10,17,18,37,10.80
2012,10,17,18,39,10.80
2012,10,17,18,40,10.80
2012,10,17,18,41,10.80
2012,10,17,18,42,10.80
2012,10,17,18,44,10.80
2012,10,17,18,45,10.80
2012,10,17,18,47,10.80
2012,10,17,18,48,10.80
2012,10,17,18,49,10.80
2012,10,17,18,50,10.80
2012,10,17,18,52,10.80
2012,10,17,18,53,10.80
2012,10,17,18,54,10.80
2012,10,17,18,56,10.80
2012,10,17,18,57,10.80
2012,10,17,18,58,10.90
2012,10,17,18,59,10.90
2012,10,17,19,00,10.90
2012,10,17,19,01,10.90
2012,10,17,19,02,10.90
2012,10,17,19,03,10.90
2012,10,17,19,04,10.90
2012,10,17,19,06,10.90
2012,10,17,19,07,10.90
2012,10,17,19,08,10.90
2012,10,17,19,09,10.90
2012,10,17,19,10,10.90
2012,10,17,19,11,10.90
2012,10,17,19,13,10.90
2012,10,17,19,14,10.90
2012,10,17,19,15,10.90
2012,10,17,19,16,10.80
2012,10,17,19,18,10.80
2012,10,17,19,19,10.80
2012,10,17,19,20,10.80
2012,10,17,19,21,10.80
2012,10,17,19,22,10.80
2012,10,17,19,24,10.80
2012,10,17,19,25,10.80
2012,10,17,19,26,10.80
2012,10,17,19,28,10.80
2012,10,17,19,29,10.70
2012,10,17,19,30,10.70
2012,10,17,19,31,10.70
2012,10,17,19,32,10.70
2012,10,17,19,34,10.70
2012,10,17,19,35,10.60
2012,10,17,19,36,10.50
2012,10,17,19,37,10.50
2012,10,17,19,38,10.40
2012,10,17,19,39,10.40
2012,10,17,19,40,10.40
2012,10,17,19,41,10.30
2012,10,17,19,42,10.30
2012,10,17,19,44,10.30
2012,10,17,19,45,10.20
2012,10,17,19,46,10.20
2012,10,17,19,47,10.20
2012,10,17,19,48,10.20
2012,10,17,19,49,10.10
2012,10,17,19,50,10.10
2012,10,17,19,51,10.10
2012,10,17,19,52,10.10
2012,10,17,19,53,10.10
2012,10,17,19,55,10.10
2012,10,17,19,56,10.00
2012,10,17,19,57,10.00
2012,10,17,19,58,10.00
2012,10,17,19,59,10.00
2012,10,17,20,00,10.00
2012,10,17,20,01,10.00
2012,10,17,20,02,10.00
2012,10,17,20,03,10.00
2012,10,17,20,04,9.90
2012,10,17,20,06,9.90
2012,10,17,20,07,9.90
2012,10,17,20,08,9.90
2012,10,17,20,10,9.90
2012,10,17,20,11,9.90
2012,10,17,20,12,9.90
2012,10,17,20,13,9.90
2012,10,17,20,15,9.90
2012,10,17,20,16,9.90
2012,10,17,20,17,9.90
2012,10,17,20,18,9.90
2012,10,17,20,20,9.90
2012,10,17,20,21,9.90
2012,10,17,20,22,9.80
2012,10,17,20,23,9.80
2012,10,17,20,24,9.80
2012,10,17,20,26,9.80
2012,10,17,20,27,9.80
2012,10,17,20,28,9.80
2012,10,17,20,29,9.80
2012,10,17,20,30,9.80
2012,10,17,20,32,9.80
2012,10,17,20,33,9.80
2012,10,17,20,34,9.70
2012,10,17,20,35,9.70
2012,10,17,20,36,9.70